Time,TemperatureF,DewpointF,PressureIn,WindDirection,WindDirectionDegrees,WindSpeedMPH,WindSpeedGustMPH,Humidity,HourlyPrecipIn,Conditions,Clouds,dailyrainin,SoftwareType,DateUTC
2013-09-08 00:01:00,76.4,69.0,29.22,SE,135,0.0,0.0,78,0.00,,---,0.00,VWS V13.01,2013-09-08 05:01:00,
2013-09-08 00:06:00,76.2,68.8,29.23,SE,135,0.0,0.0,78,0.00,,---,0.00,VWS V13.01,2013-09-08 05:06:00,
2013-09-08 00:11:00,76.1,68.4,29.23,ESE,112,0.0,0.0,77,0.00,,---,0.00,VWS V13.01,2013-09-08 05:11:00,
2013-09-08 00:16:00,76.1,68.4,29.23,ESE,112,0.0,0.0,77,0.00,,---,0.00,VWS V13.01,2013-09-08 05:16:00,
2013-09-08 00:21:00,75.9,68.2,29.23,ESE,112,0.0,0.0,77,0.00,,---,0.00,VWS V13.01,2013-09-08 05:21:00,
2013-09-08 00:26:00,75.9,67.8,29.23,ESE,112,0.0,0.0,76,0.00,,---,0.00,VWS V13.01,2013-09-08 05:26:00,
2013-09-08 00:31:00,75.7,67.6,29.23,ESE,112,0.0,0.0,76,0.00,,---,0.00,VWS V13.01,2013-09-08 05:31:00,
2013-09-08 00:36:00,75.5,67.4,29.24,ESE,112,0.0,0.0,76,0.00,,---,0.00,VWS V13.01,2013-09-08 05:36:00,
2013-09-08 00:41:00,75.3,67.2,29.24,ESE,112,0.0,0.0,76,0.00,,---,0.00,VWS V13.01,2013-09-08 05:41:00,
2013-09-08 00:46:00,75.3,67.2,29.24,ESE,112,0.0,0.0,76,0.00,,---,0.00,VWS V13.01,2013-09-08 05:46:00,
2013-09-08 00:51:00,75.0,66.9,29.24,ESE,112,0.0,0.0,76,0.00,,---,0.00,VWS V13.01,2013-09-08 05:51:00,
2013-09-08 00:56:00,75.0,67.3,29.24,ESE,112,0.0,0.0,77,0.00,,---,0.00,VWS V13.01,2013-09-08 05:56:00,
2013-09-08 01:01:00,74.8,67.1,29.25,ESE,112,0.0,0.0,77,0.00,,---,0.00,VWS V13.01,2013-09-08 06:01:00,
2013-09-08 01:06:00,74.8,67.1,29.24,ESE,112,0.0,0.0,77,0.00,,---,0.00,VWS V13.01,2013-09-08 06:06:00,
2013-09-08 01:11:00,74.6,66.9,29.24,ESE,112,0.0,0.0,77,0.00,,---,0.00,VWS V13.01,2013-09-08 06:11:00,
2013-09-08 01:16:00,74.4,66.7,29.24,ESE,112,0.0,0.0,77,0.00,,---,0.00,VWS V13.01,2013-09-08 06:16:00,
2013-09-08 01:21:00,74.3,66.6,29.24,ESE,112,0.0,0.0,77,0.00,,---,0.00,VWS V13.01,2013-09-08 06:21:00,
2013-09-08 01:26:00,74.1,66.4,29.25,ESE,112,0.0,0.0,77,0.00,,---,0.00,VWS V13.01,2013-09-08 06:26:00,
2013-09-08 01:31:00,73.9,66.6,29.25,ESE,112,0.0,0.0,78,0.00,,---,0.00,VWS V13.01,2013-09-08 06:31:00,
2013-09-08 01:36:00,73.9,66.6,29.25,NE,45,0.0,0.0,78,0.00,,---,0.00,VWS V13.01,2013-09-08 06:36:00,
2013-09-08 01:41:00,73.5,66.2,29.25,NE,45,0.0,0.0,78,0.00,,---,0.00,VWS V13.01,2013-09-08 06:41:00,
2013-09-08 01:46:00,73.5,66.2,29.25,NE,45,0.0,0.0,78,0.00,,---,0.00,VWS V13.01,2013-09-08 06:46:00,
2013-09-08 01:52:00,73.4,66.1,29.25,NE,45,0.0,0.0,78,0.00,,---,0.00,VWS V13.01,2013-09-08 06:52:00,
2013-09-08 01:57:00,73.2,65.9,29.25,NE,45,0.0,0.0,78,0.00,,---,0.00,VWS V13.01,2013-09-08 06:57:00,
2013-09-08 02:02:00,73.2,66.3,29.25,NE,45,0.0,0.0,79,0.00,,---,0.00,VWS V13.01,2013-09-08 07:02:00,
2013-09-08 02:07:00,73.2,66.3,29.25,NE,45,0.0,0.0,79,0.00,,---,0.00,VWS V13.01,2013-09-08 07:07:00,
2013-09-08 02:13:00,73.2,66.3,29.25,NE,45,0.0,0.0,79,0.00,,---,0.00,VWS V13.01,2013-09-08 07:13:00,
2013-09-08 02:18:00,73.0,66.1,29.25,NE,45,0.0,0.0,79,0.00,,---,0.00,VWS V13.01,2013-09-08 07:18:00,
2013-09-08 02:23:00,73.0,66.1,29.25,NE,45,0.0,0.0,79,0.00,,---,0.00,VWS V13.01,2013-09-08 07:23:00,
2013-09-08 02:28:00,73.0,66.1,29.25,NE,45,0.0,0.0,79,0.00,,---,0.00,VWS V13.01,2013-09-08 07:28:00,
2013-09-08 02:33:00,73.0,66.5,29.25,NE,45,0.0,0.0,80,0.00,,---,0.00,VWS V13.01,2013-09-08 07:33:00,
2013-09-08 02:38:00,72.8,66.3,29.24,NE,45,0.0,0.0,80,0.00,,---,0.00,VWS V13.01,2013-09-08 07:38:00,
2013-09-08 02:43:00,72.8,66.3,29.24,NE,45,0.0,0.0,80,0.00,,---,0.00,VWS V13.01,2013-09-08 07:43:00,
2013-09-08 02:48:00,72.8,66.3,29.23,NE,45,0.0,0.0,80,0.00,,---,0.00,VWS V13.01,2013-09-08 07:48:00,
2013-09-08 02:53:00,72.6,66.1,29.23,NE,45,0.0,0.0,80,0.00,,---,0.00,VWS V13.01,2013-09-08 07:53:00,
2013-09-08 02:58:00,72.6,66.1,29.24,NE,45,0.0,0.0,80,0.00,,---,0.00,VWS V13.01,2013-09-08 07:58:00,
2013-09-08 03:03:00,72.6,66.1,29.24,NE,45,0.0,0.0,80,0.00,,---,0.00,VWS V13.01,2013-09-08 08:03:00,
2013-09-08 03:08:00,72.6,66.1,29.24,NE,45,0.0,0.0,80,0.00,,---,0.00,VWS V13.01,2013-09-08 08:08:00,
2013-09-08 03:13:00,72.6,66.1,29.24,NE,45,0.0,0.0,80,0.00,,---,0.00,VWS V13.01,2013-09-08 08:13:00,
2013-09-08 03:18:00,72.6,66.1,29.23,NE,45,0.0,0.0,80,0.00,,---,0.00,VWS V13.01,2013-09-08 08:18:00,
2013-09-08 03:23:00,72.6,66.1,29.23,NE,45,0.0,0.0,80,0.00,,---,0.00,VWS V13.01,2013-09-08 08:23:00,
2013-09-08 03:28:00,72.6,66.1,29.23,NE,45,0.0,0.0,80,0.00,,---,0.00,VWS V13.01,2013-09-08 08:28:00,
2013-09-08 03:33:00,72.6,66.1,29.24,NE,45,0.0,0.0,80,0.00,,---,0.00,VWS V13.01,2013-09-08 08:33:00,
2013-09-08 03:38:00,72.6,66.1,29.24,NE,45,0.0,0.0,80,0.00,,---,0.00,VWS V13.01,2013-09-08 08:38:00,
2013-09-08 03:43:00,72.6,66.1,29.24,NE,45,0.0,0.0,80,0.00,,---,0.00,VWS V13.01,2013-09-08 08:43:00,
2013-09-08 03:48:00,72.5,66.0,29.24,NE,45,0.0,0.0,80,0.00,,---,0.00,VWS V13.01,2013-09-08 08:48:00,
2013-09-08 03:53:00,72.5,66.0,29.24,NE,45,0.0,0.0,80,0.00,,---,0.00,VWS V13.01,2013-09-08 08:53:00,
2013-09-08 03:58:00,72.3,65.8,29.23,NE,45,0.0,0.0,80,0.00,,---,0.00,VWS V13.01,2013-09-08 08:58:00,
2013-09-08 04:03:00,72.3,65.8,29.24,NE,45,0.0,0.0,80,0.00,,---,0.00,VWS V13.01,2013-09-08 09:03:00,
2013-09-08 04:08:00,72.3,65.8,29.24,NE,45,0.0,0.0,80,0.00,,---,0.00,VWS V13.01,2013-09-08 09:08:00,
2013-09-08 04:13:00,72.3,65.8,29.24,NE,45,0.0,0.0,80,0.00,,---,0.00,VWS V13.01,2013-09-08 09:13:00,
2013-09-08 04:18:00,72.1,65.6,29.24,NE,45,0.0,0.0,80,0.00,,---,0.00,VWS V13.01,2013-09-08 09:18:00,
2013-09-08 04:23:00,72.1,65.6,29.25,NE,45,0.0,0.0,80,0.00,,---,0.00,VWS V13.01,2013-09-08 09:23:00,
2013-09-08 04:28:00,71.9,65.4,29.25,NE,45,0.0,0.0,80,0.00,,---,0.00,VWS V13.01,2013-09-08 09:28:00,
2013-09-08 04:33:00,71.9,65.4,29.25,NE,45,0.0,0.0,80,0.00,,---,0.00,VWS V13.01,2013-09-08 09:33:00,
2013-09-08 04:38:00,71.7,65.2,29.25,NE,45,0.0,0.0,80,0.00,,---,0.00,VWS V13.01,2013-09-08 09:38:00,
2013-09-08 04:43:00,71.6,65.1,29.25,NE,45,0.0,0.0,80,0.00,,---,0.00,VWS V13.01,2013-09-08 09:43:00,
2013-09-08 04:48:00,71.4,64.9,29.24,NE,45,0.0,0.0,80,0.00,,---,0.00,VWS V13.01,2013-09-08 09:48:00,
2013-09-08 04:53:00,71.4,64.9,29.25,East,90,0.0,0.0,80,0.00,,---,0.00,VWS V13.01,2013-09-08 09:53:00,
2013-09-08 04:58:00,71.2,64.7,29.24,East,90,0.0,0.0,80,0.00,,---,0.00,VWS V13.01,2013-09-08 09:58:00,
2013-09-08 05:03:00,71.2,64.7,29.24,East,90,0.0,0.0,80,0.00,,---,0.00,VWS V13.01,2013-09-08 10:03:00,
2013-09-08 05:08:00,71.2,65.1,29.25,East,90,0.0,0.0,81,0.00,,---,0.00,VWS V13.01,2013-09-08 10:08:00,
2013-09-08 05:13:00,70.8,64.7,29.25,East,90,0.0,0.0,81,0.00,,---,0.00,VWS V13.01,2013-09-08 10:13:00,
2013-09-08 05:18:00,70.8,64.7,29.23,East,90,0.0,0.0,81,0.00,,---,0.00,VWS V13.01,2013-09-08 10:18:00,
2013-09-08 05:23:00,70.8,64.7,29.24,East,90,0.0,0.0,81,0.00,,---,0.00,VWS V13.01,2013-09-08 10:23:00,
2013-09-08 05:28:00,70.7,64.6,29.24,ESE,112,0.0,0.0,81,0.00,,---,0.00,VWS V13.01,2013-09-08 10:28:00,
2013-09-08 05:33:00,70.7,64.6,29.24,ESE,112,0.0,0.0,81,0.00,,---,0.00,VWS V13.01,2013-09-08 10:33:00,
2013-09-08 05:38:00,70.5,64.4,29.25,ESE,112,0.0,0.0,81,0.00,,---,0.00,VWS V13.01,2013-09-08 10:38:00,
2013-09-08 05:43:00,70.5,64.4,29.25,ESE,112,0.0,0.0,81,0.00,,---,0.00,VWS V13.01,2013-09-08 10:43:00,
2013-09-08 05:48:00,70.5,64.8,29.25,ESE,112,0.0,0.0,82,0.00,,---,0.00,VWS V13.01,2013-09-08 10:48:00,
2013-09-08 05:54:00,70.5,64.8,29.25,ESE,112,0.0,0.0,82,0.00,,---,0.00,VWS V13.01,2013-09-08 10:54:00,
2013-09-08 05:59:00,70.5,64.8,29.25,ESE,112,0.0,0.0,82,0.00,,---,0.00,VWS V13.01,2013-09-08 10:59:00,
2013-09-08 06:04:00,70.5,64.8,29.25,ESE,112,0.0,0.0,82,0.00,,---,0.00,VWS V13.01,2013-09-08 11:04:00,
2013-09-08 06:09:00,70.5,64.8,29.25,ESE,112,0.0,0.0,82,0.00,,---,0.00,VWS V13.01,2013-09-08 11:09:00,
2013-09-08 06:14:00,70.7,64.9,29.25,ESE,112,0.0,0.0,82,0.00,,---,0.00,VWS V13.01,2013-09-08 11:14:00,
2013-09-08 06:20:00,70.7,64.9,29.25,ESE,112,0.0,0.0,82,0.00,,---,0.00,VWS V13.01,2013-09-08 11:20:00,
2013-09-08 06:25:00,70.7,64.9,29.25,ESE,112,0.0,0.0,82,0.00,,---,0.00,VWS V13.01,2013-09-08 11:25:00,
2013-09-08 06:30:00,70.7,65.3,29.25,ESE,112,0.0,0.0,83,0.00,,---,0.00,VWS V13.01,2013-09-08 11:30:00,
2013-09-08 06:35:00,70.8,65.4,29.25,ESE,112,0.0,0.0,83,0.00,,---,0.00,VWS V13.01,2013-09-08 11:35:00,
2013-09-08 06:40:00,70.8,65.4,29.25,ESE,112,0.0,0.0,83,0.00,,---,0.00,VWS V13.01,2013-09-08 11:40:00,
2013-09-08 06:45:00,70.8,65.4,29.26,ESE,112,0.0,0.0,83,0.00,,---,0.00,VWS V13.01,2013-09-08 11:45:00,
2013-09-08 06:50:00,70.8,65.4,29.25,ESE,112,0.0,0.0,83,0.00,,---,0.00,VWS V13.01,2013-09-08 11:50:00,
2013-09-08 06:55:00,70.8,65.0,29.25,ESE,112,0.0,0.0,82,0.00,,---,0.00,VWS V13.01,2013-09-08 11:55:00,
2013-09-08 07:00:00,70.8,65.4,29.25,ESE,112,0.0,0.0,83,0.00,,---,0.00,VWS V13.01,2013-09-08 12:00:00,
2013-09-08 07:05:00,70.8,65.4,29.26,ESE,112,0.0,0.0,83,0.00,,---,0.00,VWS V13.01,2013-09-08 12:05:00,
2013-09-08 07:10:00,70.8,65.4,29.26,ESE,112,0.0,0.0,83,0.00,,---,0.00,VWS V13.01,2013-09-08 12:10:00,
2013-09-08 07:15:00,70.8,65.0,29.26,ESE,112,0.0,0.0,82,0.00,,---,0.00,VWS V13.01,2013-09-08 12:15:00,
2013-09-08 07:21:00,70.8,65.0,29.26,ESE,112,0.0,0.0,82,0.00,,---,0.00,VWS V13.01,2013-09-08 12:21:00,
2013-09-08 07:26:00,70.8,65.0,29.26,SE,135,0.0,0.0,82,0.00,,---,0.00,VWS V13.01,2013-09-08 12:26:00,
2013-09-08 07:31:00,70.8,65.0,29.26,SE,135,0.0,0.0,82,0.00,,---,0.00,VWS V13.01,2013-09-08 12:31:00,
2013-09-08 07:36:00,70.8,65.0,29.26,ESE,112,0.0,0.0,82,0.00,,---,0.00,VWS V13.01,2013-09-08 12:36:00,
2013-09-08 07:41:00,70.8,65.0,29.27,SE,135,0.0,0.0,82,0.00,,---,0.00,VWS V13.01,2013-09-08 12:41:00,
2013-09-08 07:46:00,70.7,64.9,29.27,SE,135,0.0,0.0,82,0.00,,---,0.00,VWS V13.01,2013-09-08 12:46:00,
2013-09-08 07:51:00,70.7,64.6,29.26,ESE,112,0.0,0.0,81,0.00,,---,0.00,VWS V13.01,2013-09-08 12:51:00,
2013-09-08 07:56:00,70.5,64.4,29.26,ESE,112,0.0,0.0,81,0.00,,---,0.00,VWS V13.01,2013-09-08 12:56:00,
2013-09-08 08:01:00,70.3,64.2,29.27,ESE,112,0.0,0.0,81,0.00,,---,0.00,VWS V13.01,2013-09-08 13:01:00,
2013-09-08 08:06:00,70.3,64.2,29.27,ESE,112,0.0,0.0,81,0.00,,---,0.00,VWS V13.01,2013-09-08 13:06:00,
2013-09-08 08:11:00,70.3,64.2,29.27,ESE,112,0.0,0.0,81,0.00,,---,0.00,VWS V13.01,2013-09-08 13:11:00,
2013-09-08 08:17:00,70.1,64.0,29.27,ESE,112,0.0,0.0,81,0.00,,---,0.00,VWS V13.01,2013-09-08 13:17:00,
2013-09-08 08:22:00,69.9,63.8,29.27,SE,135,0.0,0.0,81,0.00,,---,0.00,VWS V13.01,2013-09-08 13:22:00,
2013-09-08 08:27:00,69.8,63.4,29.28,ESE,112,0.0,0.0,80,0.00,,---,0.00,VWS V13.01,2013-09-08 13:27:00,
2013-09-08 08:32:00,69.8,63.4,29.28,SE,135,6.6,6.6,80,0.00,,---,0.00,VWS V13.01,2013-09-08 13:32:00,
2013-09-08 08:37:00,69.6,63.2,29.28,SE,135,3.0,3.0,80,0.00,,---,0.00,VWS V13.01,2013-09-08 13:37:00,
2013-09-08 08:42:00,69.6,63.2,29.28,ESE,112,0.0,0.0,80,0.00,,---,0.00,VWS V13.01,2013-09-08 13:42:00,
2013-09-08 08:47:00,69.4,63.0,29.28,SE,135,0.0,0.0,80,0.00,,---,0.00,VWS V13.01,2013-09-08 13:47:00,
2013-09-08 08:52:00,69.4,63.0,29.28,SE,135,7.0,7.0,80,0.00,,---,0.00,VWS V13.01,2013-09-08 13:52:00,
2013-09-08 08:58:00,69.4,63.0,29.28,East,90,0.0,0.0,80,0.00,,---,0.00,VWS V13.01,2013-09-08 13:58:00,
2013-09-08 09:03:00,69.2,62.8,29.28,ESE,112,0.0,0.0,80,0.00,,---,0.00,VWS V13.01,2013-09-08 14:03:00,
2013-09-08 09:09:00,69.4,63.0,29.28,SE,135,0.0,0.0,80,0.00,,---,0.00,VWS V13.01,2013-09-08 14:09:00,
2013-09-08 09:14:00,69.4,63.0,29.28,SE,135,0.0,0.0,80,0.00,,---,0.00,VWS V13.01,2013-09-08 14:14:00,
2013-09-08 09:20:00,69.4,63.0,29.29,SE,135,0.0,0.0,80,0.00,,---,0.00,VWS V13.01,2013-09-08 14:20:00,
2013-09-08 09:25:00,69.6,63.2,29.29,SE,135,0.0,0.0,80,0.00,,---,0.00,VWS V13.01,2013-09-08 14:25:00,
2013-09-08 09:31:00,69.6,63.2,29.29,SE,135,5.2,5.2,80,0.00,,---,0.00,VWS V13.01,2013-09-08 14:31:00,
2013-09-08 09:36:00,69.6,63.2,29.29,SE,135,0.0,0.0,80,0.00,,---,0.00,VWS V13.01,2013-09-08 14:36:00,
2013-09-08 09:41:00,69.6,63.2,29.29,ESE,112,0.0,0.0,80,0.00,,---,0.00,VWS V13.01,2013-09-08 14:41:00,
2013-09-08 09:46:00,69.6,63.2,29.30,ESE,112,0.0,0.0,80,0.00,,---,0.00,VWS V13.01,2013-09-08 14:46:00,
2013-09-08 09:51:00,69.8,63.4,29.29,ESE,112,0.0,0.0,80,0.00,,---,0.00,VWS V13.01,2013-09-08 14:51:00,
2013-09-08 09:56:00,69.9,63.5,29.30,SE,135,0.0,0.0,80,0.00,,---,0.00,VWS V13.01,2013-09-08 14:56:00,
2013-09-08 10:01:00,69.9,63.5,29.30,SE,135,0.0,0.0,80,0.00,,---,0.00,VWS V13.01,2013-09-08 15:01:00,
2013-09-08 10:06:00,70.1,63.3,29.30,ESE,112,0.0,0.0,79,0.00,,---,0.00,VWS V13.01,2013-09-08 15:06:00,
2013-09-08 10:11:00,70.1,63.3,29.30,ESE,112,0.0,0.0,79,0.00,,---,0.00,VWS V13.01,2013-09-08 15:11:00,
2013-09-08 10:16:00,70.3,63.5,29.30,ESE,112,0.0,0.0,79,0.00,,---,0.00,VWS V13.01,2013-09-08 15:16:00,
2013-09-08 10:21:00,70.3,63.5,29.30,ESE,112,0.0,0.0,79,0.00,,---,0.00,VWS V13.01,2013-09-08 15:21:00,
2013-09-08 10:26:00,70.5,63.7,29.30,ESE,112,0.0,0.0,79,0.00,,---,0.00,VWS V13.01,2013-09-08 15:26:00,
2013-09-08 10:31:00,70.7,63.9,29.30,ESE,112,0.0,0.0,79,0.00,,---,0.00,VWS V13.01,2013-09-08 15:31:00,
2013-09-08 10:36:00,70.8,63.6,29.30,SE,135,0.0,0.0,78,0.00,,---,0.00,VWS V13.01,2013-09-08 15:36:00,
2013-09-08 10:41:00,71.2,64.0,29.29,SSE,158,0.0,0.0,78,0.00,,---,0.00,VWS V13.01,2013-09-08 15:41:00,
2013-09-08 10:46:00,71.4,64.2,29.30,SSE,158,0.0,0.0,78,0.00,,---,0.00,VWS V13.01,2013-09-08 15:46:00,
2013-09-08 10:51:00,71.4,64.2,29.30,SSE,158,0.0,0.0,78,0.00,,---,0.00,VWS V13.01,2013-09-08 15:51:00,
2013-09-08 10:56:00,71.7,64.1,29.30,SE,135,0.0,2.2,77,0.00,,---,0.00,VWS V13.01,2013-09-08 15:56:00,
2013-09-08 11:01:00,72.1,64.5,29.29,SE,135,0.0,0.0,77,0.00,,---,0.00,VWS V13.01,2013-09-08 16:01:00,
2013-09-08 11:06:00,72.3,64.7,29.29,SE,135,0.0,0.0,77,0.00,,---,0.00,VWS V13.01,2013-09-08 16:06:00,
2013-09-08 11:11:00,72.5,64.5,29.28,SE,135,0.0,0.0,76,0.00,,---,0.00,VWS V13.01,2013-09-08 16:11:00,
2013-09-08 11:16:00,72.6,64.6,29.28,SE,135,0.0,0.0,76,0.00,,---,0.00,VWS V13.01,2013-09-08 16:16:00,
2013-09-08 11:21:00,73.0,65.0,29.29,SE,135,1.6,1.6,76,0.00,,---,0.00,VWS V13.01,2013-09-08 16:21:00,
2013-09-08 11:26:00,73.0,64.6,29.29,SE,135,0.0,0.0,75,0.00,,---,0.00,VWS V13.01,2013-09-08 16:26:00,
2013-09-08 11:31:00,73.2,64.8,29.28,SE,135,0.0,0.0,75,0.00,,---,0.00,VWS V13.01,2013-09-08 16:31:00,
2013-09-08 11:36:00,73.2,64.8,29.28,SE,135,0.0,0.0,75,0.00,,---,0.00,VWS V13.01,2013-09-08 16:36:00,
2013-09-08 11:41:00,73.2,64.4,29.28,ESE,112,0.0,0.0,74,0.00,,---,0.00,VWS V13.01,2013-09-08 16:41:00,
2013-09-08 11:46:00,73.5,65.1,29.28,SE,135,0.0,0.0,75,0.00,,---,0.00,VWS V13.01,2013-09-08 16:46:00,
2013-09-08 11:51:00,73.7,64.9,29.28,ESE,112,0.0,0.0,74,0.00,,---,0.00,VWS V13.01,2013-09-08 16:51:00,
2013-09-08 11:56:00,73.9,65.1,29.28,SE,135,0.0,0.0,74,0.00,,---,0.00,VWS V13.01,2013-09-08 16:56:00,
2013-09-08 12:01:00,74.1,65.3,29.28,SE,135,0.0,0.0,74,0.00,,---,0.00,VWS V13.01,2013-09-08 17:01:00,
2013-09-08 12:06:00,74.1,65.3,29.27,SE,135,0.0,0.0,74,0.00,,---,0.00,VWS V13.01,2013-09-08 17:06:00,
2013-09-08 12:11:00,74.3,65.5,29.27,SE,135,4.0,4.0,74,0.00,,---,0.00,VWS V13.01,2013-09-08 17:11:00,
2013-09-08 12:16:00,74.8,66.0,29.27,ESE,112,0.0,0.0,74,0.00,,---,0.00,VWS V13.01,2013-09-08 17:16:00,
2013-09-08 12:21:00,74.8,65.6,29.27,SE,135,0.0,0.0,73,0.00,,---,0.00,VWS V13.01,2013-09-08 17:21:00,
2013-09-08 12:26:00,75.0,65.8,29.27,SE,135,0.0,0.0,73,0.00,,---,0.00,VWS V13.01,2013-09-08 17:26:00,
2013-09-08 12:31:00,75.3,65.7,29.27,SE,135,0.0,0.0,72,0.00,,---,0.00,VWS V13.01,2013-09-08 17:31:00,
2013-09-08 12:36:00,75.3,65.7,29.26,SE,135,0.0,0.0,72,0.00,,---,0.00,VWS V13.01,2013-09-08 17:36:00,
2013-09-08 12:41:00,75.7,66.0,29.26,SE,135,0.0,0.0,72,0.00,,---,0.00,VWS V13.01,2013-09-08 17:41:00,
2013-09-08 12:47:00,75.9,66.2,29.25,South,180,0.0,0.0,72,0.00,,---,0.00,VWS V13.01,2013-09-08 17:47:00,
2013-09-08 12:52:00,76.1,66.0,29.25,SE,135,0.0,9.8,71,0.00,,---,0.00,VWS V13.01,2013-09-08 17:52:00,
2013-09-08 12:57:00,76.1,66.0,29.25,SE,135,0.0,0.0,71,0.00,,---,0.00,VWS V13.01,2013-09-08 17:57:00,
2013-09-08 13:02:00,76.2,66.1,29.25,SE,135,0.0,0.0,71,0.00,,---,0.00,VWS V13.01,2013-09-08 18:02:00,
2013-09-08 13:07:00,76.6,66.5,29.24,SE,135,0.0,0.0,71,0.00,,---,0.00,VWS V13.01,2013-09-08 18:07:00,
2013-09-08 13:12:00,76.8,66.7,29.24,SE,135,0.0,0.0,71,0.00,,---,0.00,VWS V13.01,2013-09-08 18:12:00,
2013-09-08 13:17:00,77.0,66.5,29.24,SE,135,0.0,0.0,70,0.00,,---,0.00,VWS V13.01,2013-09-08 18:17:00,
2013-09-08 13:22:00,77.1,66.6,29.24,SE,135,0.0,2.6,70,0.00,,---,0.00,VWS V13.01,2013-09-08 18:22:00,
2013-09-08 13:27:00,77.5,66.9,29.25,SE,135,0.8,0.8,70,0.00,,---,0.00,VWS V13.01,2013-09-08 18:27:00,
2013-09-08 13:32:00,77.5,66.5,29.25,SE,135,0.0,0.0,69,0.00,,---,0.00,VWS V13.01,2013-09-08 18:32:00,
2013-09-08 13:37:00,77.7,66.7,29.25,SSE,158,0.0,0.0,69,0.00,,---,0.00,VWS V13.01,2013-09-08 18:37:00,
2013-09-08 13:42:00,77.7,66.7,29.25,SE,135,0.0,0.0,69,0.00,,---,0.00,VWS V13.01,2013-09-08 18:42:00,
2013-09-08 13:47:00,77.9,66.9,29.25,SE,135,0.0,0.0,69,0.00,,---,0.00,VWS V13.01,2013-09-08 18:47:00,
2013-09-08 13:52:00,77.7,66.7,29.25,SE,135,0.0,0.0,69,0.00,,---,0.00,VWS V13.01,2013-09-08 18:52:00,
2013-09-08 13:57:00,77.7,66.7,29.25,SE,135,0.0,0.0,69,0.00,,---,0.00,VWS V13.01,2013-09-08 18:57:00,
2013-09-08 14:02:00,77.7,66.7,29.25,SE,135,0.0,0.0,69,0.00,,---,0.00,VWS V13.01,2013-09-08 19:02:00,
2013-09-08 14:07:00,78.0,67.0,29.24,SE,135,0.0,0.0,69,0.00,,---,0.00,VWS V13.01,2013-09-08 19:07:00,
2013-09-08 14:12:00,78.0,67.0,29.25,SE,135,0.0,0.0,69,0.00,,---,0.00,VWS V13.01,2013-09-08 19:12:00,
2013-09-08 14:17:00,78.0,66.6,29.25,SE,135,0.0,0.0,68,0.00,,---,0.00,VWS V13.01,2013-09-08 19:17:00,
2013-09-08 14:22:00,78.4,67.0,29.25,SE,135,0.0,0.0,68,0.00,,---,0.00,VWS V13.01,2013-09-08 19:22:00,
2013-09-08 14:27:00,78.6,67.6,29.24,SE,135,0.0,0.0,69,0.00,,---,0.00,VWS V13.01,2013-09-08 19:27:00,
2013-09-08 14:32:00,78.9,67.4,29.24,SE,135,0.0,0.0,68,0.00,,---,0.00,VWS V13.01,2013-09-08 19:32:00,
2013-09-08 14:37:00,78.9,67.0,29.24,SE,135,0.0,0.0,67,0.00,,---,0.00,VWS V13.01,2013-09-08 19:37:00,
2013-09-08 14:42:00,78.9,67.0,29.24,SE,135,0.0,0.0,67,0.00,,---,0.00,VWS V13.01,2013-09-08 19:42:00,
2013-09-08 14:47:00,78.9,67.0,29.23,SE,135,0.0,0.0,67,0.00,,---,0.00,VWS V13.01,2013-09-08 19:47:00,
2013-09-08 14:52:00,78.9,67.0,29.23,SE,135,0.0,0.0,67,0.00,,---,0.00,VWS V13.01,2013-09-08 19:52:00,
2013-09-08 14:57:00,78.6,66.7,29.23,SE,135,0.0,0.0,67,0.00,,---,0.00,VWS V13.01,2013-09-08 19:57:00,
2013-09-08 15:02:00,78.9,67.0,29.23,SE,135,0.0,0.0,67,0.00,,---,0.00,VWS V13.01,2013-09-08 20:02:00,
2013-09-08 15:07:00,78.9,67.0,29.22,SE,135,0.0,0.0,67,0.00,,---,0.00,VWS V13.01,2013-09-08 20:07:00,
2013-09-08 15:12:00,79.3,67.4,29.22,SE,135,0.0,0.0,67,0.00,,---,0.00,VWS V13.01,2013-09-08 20:12:00,
2013-09-08 15:17:00,79.5,67.2,29.21,SE,135,0.0,0.0,66,0.00,,---,0.00,VWS V13.01,2013-09-08 20:17:00,
2013-09-08 15:22:00,79.5,67.2,29.21,ESE,112,0.0,0.0,66,0.00,,---,0.00,VWS V13.01,2013-09-08 20:22:00,
2013-09-08 15:27:00,79.5,67.2,29.20,SE,135,0.0,0.0,66,0.00,,---,0.00,VWS V13.01,2013-09-08 20:27:00,
2013-09-08 15:32:00,79.7,67.3,29.20,SE,135,0.0,0.0,66,0.00,,---,0.00,VWS V13.01,2013-09-08 20:32:00,
2013-09-08 15:37:00,79.8,67.4,29.20,SE,135,0.0,0.0,66,0.00,,---,0.00,VWS V13.01,2013-09-08 20:37:00,
2013-09-08 15:42:00,79.8,67.4,29.20,SE,135,0.0,0.0,66,0.00,,---,0.00,VWS V13.01,2013-09-08 20:42:00,
2013-09-08 15:47:00,79.8,67.4,29.20,SE,135,2.2,2.2,66,0.00,,---,0.00,VWS V13.01,2013-09-08 20:47:00,
2013-09-08 15:52:00,79.8,67.4,29.20,SSE,158,0.0,0.0,66,0.00,,---,0.00,VWS V13.01,2013-09-08 20:52:00,
2013-09-08 15:57:00,80.0,67.6,29.20,SE,135,0.0,0.0,66,0.00,,---,0.00,VWS V13.01,2013-09-08 20:57:00,
2013-09-08 16:02:00,80.0,67.6,29.19,SE,135,0.0,0.0,66,0.00,,---,0.00,VWS V13.01,2013-09-08 21:02:00,
2013-09-08 16:07:00,80.0,67.6,29.19,SE,135,0.0,0.0,66,0.00,,---,0.00,VWS V13.01,2013-09-08 21:07:00,
2013-09-08 16:12:00,79.8,67.4,29.20,SE,135,0.0,0.0,66,0.00,,---,0.00,VWS V13.01,2013-09-08 21:12:00,
2013-09-08 16:17:00,79.5,67.2,29.20,SE,135,0.0,0.0,66,0.00,,---,0.00,VWS V13.01,2013-09-08 21:17:00,
2013-09-08 16:22:00,79.3,67.0,29.20,SSE,158,0.0,0.0,66,0.00,,---,0.00,VWS V13.01,2013-09-08 21:22:00,
2013-09-08 16:27:00,79.1,66.8,29.20,SE,135,0.0,0.0,66,0.00,,---,0.00,VWS V13.01,2013-09-08 21:27:00,
2013-09-08 16:32:00,78.9,67.0,29.20,SE,135,0.0,0.0,67,0.00,,---,0.00,VWS V13.01,2013-09-08 21:32:00,
2013-09-08 16:37:00,78.9,67.0,29.20,SE,135,0.0,0.0,67,0.00,,---,0.00,VWS V13.01,2013-09-08 21:37:00,
2013-09-08 16:42:00,78.8,66.9,29.20,SE,135,0.0,0.0,67,0.00,,---,0.00,VWS V13.01,2013-09-08 21:42:00,
2013-09-08 16:47:00,78.6,66.7,29.20,SE,135,0.0,0.0,67,0.00,,---,0.00,VWS V13.01,2013-09-08 21:47:00,
2013-09-08 16:52:00,78.2,66.4,29.20,SE,135,0.0,0.0,67,0.00,,---,0.00,VWS V13.01,2013-09-08 21:52:00,
2013-09-08 16:57:00,78.0,66.2,29.20,SE,135,0.0,0.0,67,0.00,,---,0.00,VWS V13.01,2013-09-08 21:57:00,
2013-09-08 17:02:00,77.7,66.3,29.20,SE,135,0.0,0.0,68,0.00,,---,0.00,VWS V13.01,2013-09-08 22:02:00,
2013-09-08 17:07:00,77.5,66.1,29.20,SE,135,0.0,0.0,68,0.00,,---,0.00,VWS V13.01,2013-09-08 22:07:00,
2013-09-08 17:12:00,77.3,65.9,29.19,ESE,112,0.0,0.0,68,0.00,,---,0.00,VWS V13.01,2013-09-08 22:12:00,
2013-09-08 17:18:00,77.0,66.1,29.20,SE,135,0.0,0.0,69,0.00,,---,0.00,VWS V13.01,2013-09-08 22:18:00,
2013-09-08 17:23:00,76.8,65.9,29.20,SE,135,0.0,0.0,69,0.00,,---,0.00,VWS V13.01,2013-09-08 22:23:00,
2013-09-08 17:28:00,76.6,65.7,29.20,SE,135,0.0,0.0,69,0.00,,---,0.00,VWS V13.01,2013-09-08 22:28:00,
2013-09-08 17:33:00,76.4,65.5,29.20,SE,135,0.0,0.0,69,0.00,,---,0.00,VWS V13.01,2013-09-08 22:33:00,
2013-09-08 17:38:00,76.2,65.3,29.20,SE,135,0.0,0.0,69,0.00,,---,0.00,VWS V13.01,2013-09-08 22:38:00,
2013-09-08 17:44:00,76.1,65.2,29.20,SE,135,0.0,0.0,69,0.00,,---,0.00,VWS V13.01,2013-09-08 22:44:00,
2013-09-08 17:49:00,75.9,65.4,29.20,SE,135,0.0,0.0,70,0.00,,---,0.00,VWS V13.01,2013-09-08 22:49:00,
2013-09-08 17:55:00,75.9,65.4,29.20,SE,135,0.0,0.0,70,0.00,,---,0.00,VWS V13.01,2013-09-08 22:55:00,
2013-09-08 18:00:00,75.7,65.2,29.20,SE,135,0.0,0.0,70,0.00,,---,0.00,VWS V13.01,2013-09-08 23:00:00,
2013-09-08 18:05:00,75.5,65.0,29.20,SE,135,0.0,0.0,70,0.00,,---,0.00,VWS V13.01,2013-09-08 23:05:00,
2013-09-08 18:10:00,75.3,65.3,29.20,SE,135,0.0,0.0,71,0.00,,---,0.00,VWS V13.01,2013-09-08 23:10:00,
2013-09-08 18:15:00,75.3,65.3,29.20,SSE,158,0.0,0.0,71,0.00,,---,0.00,VWS V13.01,2013-09-08 23:15:00,
2013-09-08 18:20:00,75.3,65.3,29.20,SE,135,0.0,0.0,71,0.00,,---,0.00,VWS V13.01,2013-09-08 23:20:00,
2013-09-08 18:25:00,75.0,65.0,29.20,SE,135,0.0,0.0,71,0.00,,---,0.00,VWS V13.01,2013-09-08 23:25:00,
2013-09-08 18:30:00,74.8,64.8,29.20,ESE,112,0.0,0.0,71,0.00,,---,0.00,VWS V13.01,2013-09-08 23:30:00,
2013-09-08 18:35:00,74.8,64.8,29.20,SE,135,0.0,0.0,71,0.00,,---,0.00,VWS V13.01,2013-09-08 23:35:00,
2013-09-08 18:40:00,74.6,64.6,29.19,SE,135,0.0,0.0,71,0.00,,---,0.00,VWS V13.01,2013-09-08 23:40:00,
2013-09-08 18:45:00,74.4,64.8,29.20,SE,135,0.0,0.0,72,0.00,,---,0.00,VWS V13.01,2013-09-08 23:45:00,
2013-09-08 18:50:00,74.3,64.7,29.20,SE,135,0.0,0.0,72,0.00,,---,0.00,VWS V13.01,2013-09-08 23:50:00,
2013-09-08 18:55:00,74.3,64.7,29.20,SE,135,0.0,0.0,72,0.00,,---,0.00,VWS V13.01,2013-09-08 23:55:00,
2013-09-08 19:00:00,74.1,64.5,29.20,SE,135,0.0,0.0,72,0.00,,---,0.00,VWS V13.01,2013-09-09 00:00:00,
2013-09-08 19:05:00,74.1,64.9,29.20,SE,135,0.0,0.0,73,0.00,,---,0.00,VWS V13.01,2013-09-09 00:05:00,
2013-09-08 19:10:00,73.9,64.7,29.20,SE,135,0.0,0.0,73,0.00,,---,0.00,VWS V13.01,2013-09-09 00:10:00,
2013-09-08 19:15:00,73.7,64.5,29.19,SE,135,0.0,0.0,73,0.00,,---,0.00,VWS V13.01,2013-09-09 00:15:00,
2013-09-08 19:20:00,73.7,64.5,29.19,SE,135,0.0,0.0,73,0.00,,---,0.00,VWS V13.01,2013-09-09 00:20:00,
2013-09-08 19:25:00,73.7,64.5,29.20,SE,135,0.0,0.0,73,0.00,,---,0.00,VWS V13.01,2013-09-09 00:25:00,
2013-09-08 19:30:00,73.5,64.7,29.19,SE,135,0.0,0.0,74,0.00,,---,0.00,VWS V13.01,2013-09-09 00:30:00,
2013-09-08 19:35:00,73.4,64.6,29.19,SE,135,0.0,0.0,74,0.00,,---,0.00,VWS V13.01,2013-09-09 00:35:00,
2013-09-08 19:40:00,73.2,64.4,29.19,SE,135,0.0,0.0,74,0.00,,---,0.00,VWS V13.01,2013-09-09 00:40:00,
2013-09-08 19:46:00,73.2,64.4,29.19,SE,135,0.0,0.0,74,0.00,,---,0.00,VWS V13.01,2013-09-09 00:46:00,
2013-09-08 19:51:00,73.0,64.2,29.19,SE,135,0.0,0.0,74,0.00,,---,0.00,VWS V13.01,2013-09-09 00:51:00,
2013-09-08 19:56:00,72.8,64.0,29.19,SE,135,0.0,0.0,74,0.00,,---,0.00,VWS V13.01,2013-09-09 00:56:00,
2013-09-08 20:01:00,72.6,63.8,29.19,SE,135,0.0,0.0,74,0.00,,---,0.00,VWS V13.01,2013-09-09 01:01:00,
2013-09-08 20:06:00,72.5,64.1,29.19,SE,135,0.0,0.0,75,0.00,,---,0.00,VWS V13.01,2013-09-09 01:06:00,
2013-09-08 20:11:00,72.3,63.9,29.19,SE,135,0.0,0.0,75,0.00,,---,0.00,VWS V13.01,2013-09-09 01:11:00,
2013-09-08 20:16:00,72.3,63.9,29.19,SE,135,0.0,0.0,75,0.00,,---,0.00,VWS V13.01,2013-09-09 01:16:00,
2013-09-08 20:21:00,72.1,63.8,29.19,SE,135,0.0,0.0,75,0.00,,---,0.00,VWS V13.01,2013-09-09 01:21:00,
2013-09-08 20:26:00,72.1,63.8,29.19,SE,135,0.0,0.0,75,0.00,,---,0.00,VWS V13.01,2013-09-09 01:26:00,
2013-09-08 20:31:00,72.1,64.1,29.19,SE,135,0.0,0.0,76,0.00,,---,0.00,VWS V13.01,2013-09-09 01:31:00,
2013-09-08 20:36:00,71.9,63.9,29.19,SE,135,0.0,0.0,76,0.00,,---,0.00,VWS V13.01,2013-09-09 01:36:00,
2013-09-08 20:41:00,71.7,63.7,29.19,SE,135,0.0,0.0,76,0.00,,---,0.00,VWS V13.01,2013-09-09 01:41:00,
2013-09-08 20:46:00,71.7,63.7,29.19,SE,135,0.0,0.0,76,0.00,,---,0.00,VWS V13.01,2013-09-09 01:46:00,
2013-09-08 20:51:00,71.6,63.6,29.19,SE,135,0.0,0.0,76,0.00,,---,0.00,VWS V13.01,2013-09-09 01:51:00,
2013-09-08 20:57:00,71.4,63.5,29.19,SE,135,0.0,0.0,76,0.00,,---,0.00,VWS V13.01,2013-09-09 01:57:00,
2013-09-08 21:02:00,71.4,63.8,29.18,SE,135,0.0,0.0,77,0.00,,---,0.00,VWS V13.01,2013-09-09 02:02:00,
2013-09-08 21:07:00,71.4,63.8,29.19,SE,135,0.0,0.0,77,0.00,,---,0.00,VWS V13.01,2013-09-09 02:07:00,
2013-09-08 21:12:00,71.4,63.8,29.19,SE,135,0.0,0.0,77,0.00,,---,0.00,VWS V13.01,2013-09-09 02:12:00,
2013-09-08 21:17:00,71.2,63.6,29.18,SE,135,0.0,0.0,77,0.00,,---,0.00,VWS V13.01,2013-09-09 02:17:00,
2013-09-08 21:23:00,71.2,63.6,29.18,SE,135,0.0,0.0,77,0.00,,---,0.00,VWS V13.01,2013-09-09 02:23:00,
2013-09-08 21:28:00,71.2,63.6,29.18,SE,135,0.0,0.0,77,0.00,,---,0.00,VWS V13.01,2013-09-09 02:28:00,
2013-09-08 21:33:00,71.2,64.0,29.18,SE,135,0.0,0.0,78,0.00,,---,0.00,VWS V13.01,2013-09-09 02:33:00,
2013-09-08 21:38:00,70.8,63.6,29.18,SE,135,0.0,0.0,78,0.00,,---,0.00,VWS V13.01,2013-09-09 02:38:00,
2013-09-08 21:43:00,70.8,63.6,29.18,SE,135,0.0,0.0,78,0.00,,---,0.00,VWS V13.01,2013-09-09 02:43:00,
2013-09-08 21:48:00,70.8,63.6,29.18,SE,135,0.0,0.0,78,0.00,,---,0.00,VWS V13.01,2013-09-09 02:48:00,
2013-09-08 21:53:00,70.7,63.5,29.18,SE,135,0.0,0.0,78,0.00,,---,0.00,VWS V13.01,2013-09-09 02:53:00,
2013-09-08 21:58:00,70.7,63.5,29.18,SE,135,0.0,0.0,78,0.00,,---,0.00,VWS V13.01,2013-09-09 02:58:00,
2013-09-08 22:04:00,70.5,63.3,29.18,SE,135,0.0,0.0,78,0.00,,---,0.00,VWS V13.01,2013-09-09 03:04:00,
2013-09-08 22:09:00,70.3,63.1,29.18,SE,135,0.0,0.0,78,0.00,,---,0.00,VWS V13.01,2013-09-09 03:09:00,
2013-09-08 22:14:00,70.3,63.1,29.18,SE,135,0.0,0.0,78,0.00,,---,0.00,VWS V13.01,2013-09-09 03:14:00,
2013-09-08 22:19:00,70.1,62.9,29.18,SE,135,0.0,0.0,78,0.00,,---,0.00,VWS V13.01,2013-09-09 03:19:00,
2013-09-08 22:24:00,70.1,62.9,29.18,SE,135,0.0,0.0,78,0.00,,---,0.00,VWS V13.01,2013-09-09 03:24:00,
2013-09-08 22:29:00,69.9,63.1,29.18,SE,135,0.0,0.0,79,0.00,,---,0.00,VWS V13.01,2013-09-09 03:29:00,
2013-09-08 22:34:00,69.9,63.1,29.18,SE,135,0.0,0.0,79,0.00,,---,0.00,VWS V13.01,2013-09-09 03:34:00,
2013-09-08 22:39:00,69.8,63.0,29.18,SE,135,0.0,0.0,79,0.00,,---,0.00,VWS V13.01,2013-09-09 03:39:00,
2013-09-08 22:44:00,69.6,62.8,29.18,SE,135,0.0,0.0,79,0.00,,---,0.00,VWS V13.01,2013-09-09 03:44:00,
2013-09-08 22:49:00,69.6,62.8,29.18,SE,135,0.0,0.0,79,0.00,,---,0.00,VWS V13.01,2013-09-09 03:49:00,
2013-09-08 22:54:00,69.6,62.8,29.18,SE,135,0.0,0.0,79,0.00,,---,0.00,VWS V13.01,2013-09-09 03:54:00,
2013-09-08 22:59:00,69.6,62.8,29.18,SE,135,0.0,0.0,79,0.00,,---,0.00,VWS V13.01,2013-09-09 03:59:00,
2013-09-08 23:01:00,69.6,63.2,29.17,SE,135,0.0,0.0,80,0.00,,---,0.00,VWS V13.01,2013-09-09 04:01:00,
2013-09-08 23:03:00,69.4,63.0,29.18,SE,135,0.0,0.0,80,0.00,,---,0.00,VWS V13.01,2013-09-09 04:03:00,
2013-09-08 23:04:00,69.4,63.0,29.18,SE,135,0.0,0.0,80,0.00,,---,0.00,VWS V13.01,2013-09-09 04:04:00,
2013-09-08 23:09:00,69.4,63.0,29.17,SE,135,0.0,0.0,80,0.00,,---,0.00,VWS V13.01,2013-09-09 04:09:00,
2013-09-08 23:13:00,69.2,62.8,29.18,SE,135,0.0,0.0,80,0.00,,---,0.00,VWS V13.01,2013-09-09 04:13:00,
2013-09-08 23:18:00,69.2,62.8,29.18,SE,135,0.0,0.0,80,0.00,,---,0.00,VWS V13.01,2013-09-09 04:18:00,
2013-09-08 23:23:00,69.0,62.6,29.18,SE,135,0.0,0.0,80,0.00,,---,0.00,VWS V13.01,2013-09-09 04:23:00,
2013-09-08 23:28:00,69.0,62.6,29.17,SE,135,0.0,0.0,80,0.00,,---,0.00,VWS V13.01,2013-09-09 04:28:00,
2013-09-08 23:33:00,69.0,62.6,29.17,SE,135,0.0,0.0,80,0.00,,---,0.00,VWS V13.01,2013-09-09 04:33:00,
2013-09-08 23:38:00,68.9,62.5,29.17,SE,135,0.0,0.0,80,0.00,,---,0.00,VWS V13.01,2013-09-09 04:38:00,
2013-09-08 23:43:00,68.9,62.5,29.17,SE,135,0.0,0.0,80,0.00,,---,0.00,VWS V13.01,2013-09-09 04:43:00,
2013-09-08 23:48:00,68.9,62.5,29.17,SE,135,0.0,0.0,80,0.00,,---,0.00,VWS V13.01,2013-09-09 04:48:00,
2013-09-08 23:54:00,68.7,62.6,29.17,SE,135,0.0,0.0,81,0.00,,---,0.00,VWS V13.01,2013-09-09 04:54:00,
2013-09-08 23:59:00,68.7,62.6,29.17,SE,135,0.0,0.0,81,0.00,,---,0.00,VWS V13.01,2013-09-09 04:59:00,